Zurück zum Katalog

ONEWEB-0343

AktivKommunikationPO
NORAD 49209·PAYLOAD·🇬🇧 United Kingdom

Gestartet Sep 14, 2021 von Baikonur Cosmodrome

Loading…

Nächste Überflüge (nächste 24 Stunden)

TLE

AktuellSource: CelesTrak SupGP

Epoche: Sep 14, 2026, 15:08 UTC

1 49209C 21083Z   26257.63072176  .00001987  00000+0  50448-2 0  2576
2 49209  87.9168 317.6858 0001778  87.2913  24.9326 13.18688389    18

Verfolge ONEWEB-0343 in Echtzeit mit AllMySat

Download on the App Store